1514638800.17,662,6.0,72290.3,-10.35,-18.25,-17.55,0,*6D
1514638801.37,663,6.0,72290.5,-10.35,-18.25,-17.49,0,*61
1514638802.6,664,6.0,72290.8,-10.35,-18.25,-17.55,0,*6B
1514638803.86,665,6.0,72290.3,-10.37,-18.17,-17.59,0,*65
1514638805.07,666,6.0,72294.0,-10.35,-18.17,-17.35,0,*6E
1514638806.3,667,6.0,72288.3,-10.35,-18.17,-17.41,0,*6C
1514638807.53,668,6.0,72290.0,-10.37,-18.07,-17.31,0,*67
1514638808.78,669,6.0,72290.3,-10.35,-18.01,-17.25,0,*67
1514638810.06,670,6.0,72294.0,-10.33,-17.97,-17.21,0,*6D
1514638811.32,671,6.0,72288.5,-10.33,-17.83,-17.21,0,*69
1514638812.6,672,6.0,72292.5,-10.33,-18.01,-17.21,0,*6F
1514638813.88,673,6.0,72288.8,-10.33,-17.97,-17.25,0,*6A
1514638815.14,674,6.0,72290.5,-10.33,-18.01,-17.35,0,*6C
1514638816.37,675,6.0,72292.3,-10.35,-18.17,-17.41,0,*6F
1514638817.57,676,6.0,72292.0,-10.35,-18.25,-17.49,0,*65
1514638818.78,677,6.0,72292.8,-10.35,-18.11,-17.35,0,*68
1514638820.01,678,6.0,72288.8,-10.33,-18.11,-17.35,0,*61
1514638821.25,679,6.0,72288.8,-10.33,-18.11,-17.35,0,*60
1514638822.45,680,6.0,72290.3,-10.31,-18.07,-17.31,0,*67
1514638823.7,681,6.0,72294.8,-10.33,-18.17,-17.41,0,*62
1514638824.98,682,6.0,72290.0,-10.33,-18.31,-17.55,0,*60
1514638826.24,683,6.0,72288.3,-10.33,-18.55,-17.83,0,*68
1514638827.52,684,6.0,72290.3,-10.33,-18.55,-17.97,0,*6A
1514638828.78,685,6.0,72286.5,-10.33,-18.55,-17.83,0,*6E
1514638830.01,686,6.0,72292.5,-10.33,-18.41,-17.73,0,*67
1514638831.24,687,6.0,72292.3,-10.33,-18.45,-17.87,0,*69
1514638832.48,688,6.0,72290.0,-10.33,-18.69,-18.11,0,*68
1514638833.76,689,6.0,72292.8,-10.33,-18.59,-18.01,0,*6B
1514638834.99,690,6.0,72292.5,-10.33,-18.73,-18.11,0,*6A
1514638836.21,691,6.0,72290.0,-10.33,-18.73,-18.17,0,*6D
1514638837.42,692,6.0,72294.0,-10.35,-18.79,-18.17,0,*62
1514638838.62,693,6.0,72290.0,-10.35,-18.73,-18.17,0,*69
1514638839.82,694,6.0,72288.0,-10.35,-18.79,-18.17,0,*64
1514638841.03,695,6.0,72290.0,-10.35,-18.73,-18.11,0,*69
1514638842.26,696,6.0,72292.0,-10.35,-18.69,-18.01,0,*60
1514638843.47,697,6.0,72290.8,-10.35,-18.79,-18.11,0,*61
1514638844.68,698,6.0,72290.0,-10.35,-18.73,-18.11,0,*64
1514638845.91,699,6.0,72292.0,-10.35,-18.73,-18.01,0,*64
1514638847.12,700,6.0,72288.3,-10.35,-18.79,-18.07,0,*69
1514638848.32,701,6.0,72288.5,-10.35,-18.79,-18.17,0,*69
1514638849.58,702,6.0,72290.3,-10.35,-18.93,-18.31,0,*6A
1514638850.78,703,6.0,72290.0,-10.35,-19.03,-18.25,0,*66
1514638852.07,704,6.0,72288.0,-10.37,-18.93,-18.31,0,*6E
1514638853.33,705,6.0,72290.8,-10.37,-18.99,-18.31,0,*65
1514638854.6,706,6.0,72286.5,-10.37,-18.99,-18.31,0,*66
1514638855.89,707,6.0,72286.5,-10.37,-18.93,-18.31,0,*6D
1514638857.15,708,6.0,72286.3,-10.37,-18.99,-18.31,0,*68
1514638858.41,709,6.0,72284.8,-10.37,-19.07,-18.35,0,*6B
1514638859.64,710,6.0,72286.3,-10.37,-19.07,-18.45,0,*64
1514638860.9,711,6.0,72288.3,-10.37,-18.99,-18.35,0,*64
1514638862.1,712,6.0,72290.0,-10.43,-18.83,-18.25,0,*6E
1514638863.34,713,6.0,72284.0,-10.41,-18.79,-18.07,0,*68
1514638864.6,714,6.0,72290.0,-10.41,-18.65,-17.93,0,*60
1514638865.86,715,6.0,72284.8,-10.41,-18.49,-17.93,0,*6F
1514638867.09,716,6.0,72286.0,-10.41,-18.41,-17.73,0,*6A
1514638868.32,717,6.0,72286.0,-10.41,-18.49,-17.73,0,*63
1514638869.58,718,6.0,72284.5,-10.41,-18.49,-17.93,0,*62
1514638870.82,719,6.0,72286.5,-10.41,-18.49,-17.83,0,*62
1514638872.08,720,6.0,72286.8,-10.41,-18.49,-17.97,0,*6D
1514638873.36,721,6.0,72286.3,-10.41,-18.55,-17.93,0,*65
1514638874.62,722,6.0,72286.3,-10.41,-18.49,-17.93,0,*6B
1514638875.85,723,6.0,72284.5,-10.41,-18.49,-17.73,0,*64
1514638877.08,724,6.0,72284.0,-10.41,-18.49,-17.73,0,*63
1514638878.32,725,6.0,72286.0,-10.41,-18.41,-17.73,0,*6A
1514638879.6,726,6.0,72288.3,-10.37,-18.35,-17.79,0,*61
1514638880.86,727,6.0,72284.8,-10.37,-18.49,-17.93,0,*6F
1514638882.09,728,6.0,72286.3,-10.37,-18.45,-17.87,0,*69
1514638883.33,729,6.0,72286.3,-10.37,-18.49,-17.87,0,*64
1514638884.58,730,6.0,72284.5,-10.37,-18.59,-18.07,0,*6A
1514638885.84,731,6.0,72290.8,-10.37,-18.59,-17.87,0,*6C
1514638887.13,732,6.0,72288.0,-10.41,-18.55,-17.97,0,*63
1514638888.37,733,6.0,72286.5,-10.41,-18.41,-17.73,0,*6D
1514638889.65,734,6.0,72288.8,-10.37,-18.35,-17.79,0,*62
1514638890.9,735,6.0,72282.3,-10.37,-18.49,-17.93,0,*6C
1514638892.14,736,6.0,72284.5,-10.37,-18.65,-18.07,0,*63
1514638893.37,737,6.0,72286.8,-10.37,-18.79,-18.07,0,*6F
1514638894.61,738,6.0,72282.5,-10.37,-18.79,-18.07,0,*60
1514638895.87,739,6.0,72284.5,-10.37,-18.99,-18.31,0,*6A
1514638897.13,740,6.0,72286.8,-10.41,-19.03,-18.55,0,*65
1514638898.39,741,6.0,72284.5,-10.41,-19.03,-18.35,0,*62
1514638899.62,742,6.0,72286.8,-10.43,-18.99,-18.35,0,*61
1514638900.87,743,6.0,72284.5,-10.41,-18.89,-18.25,0,*62
1514638902.11,744,6.0,72290.0,-10.41,-18.79,-18.11,0,*6D
1514638903.35,745,6.0,72284.5,-10.37,-18.79,-18.07,0,*6A
1514638904.6,746,6.0,72290.8,-10.41,-18.65,-17.93,0,*67
1514638905.86,747,6.0,72286.8,-10.41,-18.65,-17.93,0,*66
1514638907.08,748,6.0,72292.3,-10.43,-18.49,-17.83,0,*64
1514638908.34,749,6.0,72288.3,-10.41,-18.35,-17.83,0,*6C
1514638909.6,750,6.0,72288.8,-10.41,-18.35,-17.73,0,*6B
1514638910.86,751,6.0,72290.8,-10.43,-18.35,-17.63,0,*69
1514638912.15,752,6.0,72290.5,-10.41,-18.35,-17.59,0,*61
1514638913.41,753,6.0,72288.5,-10.43,-18.35,-17.63,0,*6B
1514638914.67,754,6.0,72288.0,-10.41,-18.25,-17.59,0,*66
1514638915.96,755,6.0,72288.5,-10.41,-18.35,-17.59,0,*66
1514638917.19,756,6.0,72288.3,-10.41,-18.25,-17.49,0,*65
1514638918.48,757,6.0,72286.3,-10.37,-18.31,-17.59,0,*61
1514638919.72,758,6.0,72288.0,-10.41,-18.41,-17.83,0,*6F
1514638921.0,759,6.0,72288.5,-10.37,-18.35,-17.59,0,*6B
1514638922.24,760,6.0,72288.0,-10.35,-18.31,-17.73,0,*6F
1514638923.47,761,6.0,72288.5,-10.37,-18.49,-17.87,0,*68
1514638924.71,762,6.0,72290.3,-10.37,-18.65,-18.07,0,*62
1514638925.96,763,6.0,72290.3,-10.37,-18.65,-17.93,0,*61
1514638927.2,764,6.0,72292.5,-10.37,-18.45,-17.87,0,*61
1514638928.45,765,6.0,72290.0,-10.37,-18.35,-17.69,0,*67
1514638929.74,766,6.0,72292.3,-10.37,-18.31,-17.59,0,*63
1514638931.0,767,6.0,72290.3,-10.37,-18.21,-17.59,0,*63
1514638932.29,768,6.0,72292.5,-10.37,-18.31,-17.55,0,*61
1514638933.57,769,6.0,72288.5,-10.37,-18.31,-17.55,0,*60
1514638934.86,770,6.0,72290.5,-10.37,-18.31,-17.59,0,*64
1514638936.15,771,6.0,72292.3,-10.37,-18.31,-17.55,0,*69
1514638937.4,772,6.0,72286.8,-10.37,-18.17,-17.55,0,*6E
1514638938.66,773,6.0,72288.0,-10.37,-18.17,-17.41,0,*6A
1514638939.87,774,6.0,72292.3,-10.35,-18.11,-17.35,0,*6A
1514638941.13,775,6.0,72288.3,-10.37,-18.21,-17.55,0,*6C
1514638942.33,776,6.0,72290.5,-10.35,-18.25,-17.49,0,*64
1514638943.59,777,6.0,72288.8,-10.37,-18.17,-17.41,0,*6E
1514638944.84,778,6.0,72290.0,-10.37,-18.17,-17.45,0,*65
1514638946.07,779,6.0,72292.8,-10.37,-18.21,-17.49,0,*6D
1514638947.3,780,6.0,72290.5,-10.35,-18.11,-17.41,0,*62
1514638948.51,781,6.0,72290.5,-10.35,-18.11,-17.35,0,*60
1514638949.77,782,6.0,72290.8,-10.37,-18.17,-17.41,0,*64
1514638951.02,783,6.0,72290.3,-10.37,-18.17,-17.45,0,*61
1514638952.25,784,6.0,72290.0,-10.35,-18.17,-17.41,0,*60
1514638953.51,785,6.0,72292.5,-10.35,-18.31,-17.55,0,*60
1514638954.74,786,6.0,72292.3,-10.33,-18.25,-17.49,0,*6D
1514638955.96,787,6.0,72294.8,-10.33,-18.25,-17.49,0,*6C
1514638957.22,788,6.0,72290.8,-10.33,-18.17,-17.55,0,*6F
1514638958.45,789,6.0,72290.3,-10.35,-18.25,-17.55,0,*69
1514638959.65,790,6.0,72288.0,-10.35,-18.11,-17.49,0,*6B
1514638960.88,791,6.0,72290.0,-10.35,-18.17,-17.41,0,*64
1514638962.09,792,6.0,72292.8,-10.31,-18.07,-17.35,0,*61
1514638963.34,793,6.0,72290.8,-10.33,-18.17,-17.41,0,*60
1514638964.59,794,6.0,72284.3,-10.33,-18.17,-17.55,0,*62
1514638965.82,795,6.0,72290.8,-10.33,-18.41,-17.73,0,*64
1514638967.07,796,6.0,72294.0,-10.33,-18.25,-17.55,0,*61
1514638968.27,797,6.0,72288.0,-10.31,-18.07,-17.31,0,*60
1514638969.5,798,6.0,72290.5,-10.33,-18.11,-17.49,0,*65
1514638970.71,799,6.0,72292.0,-10.31,-18.07,-17.35,0,*6A
1514638971.94,800,6.0,72288.3,-10.33,-18.11,-17.35,0,*60
1514638973.17,801,6.0,72292.0,-10.31,-17.97,-17.31,0,*66
1514638974.42,802,6.0,72292.5,-10.31,-17.97,-17.21,0,*64
1514638975.7,803,6.0,72290.5,-10.33,-17.97,-17.25,0,*63
1514638976.98,804,6.0,72292.5,-10.33,-18.01,-17.25,0,*64
1514638978.21,805,6.0,72290.3,-10.31,-18.11,-17.45,0,*60
1514638979.44,806,6.0,72290.3,-10.31,-18.35,-17.69,0,*6B
1514638980.66,807,6.0,72288.3,-10.31,-18.49,-17.79,0,*60
1514638981.91,808,6.0,72288.3,-10.31,-18.55,-17.93,0,*66
1514638983.14,809,6.0,72290.5,-10.33,-18.73,-18.11,0,*64
1514638984.37,810,6.0,72290.0,-10.33,-18.79,-18.17,0,*60
1514638985.6,811,6.0,72288.5,-10.33,-18.79,-18.11,0,*67
1514638986.84,812,6.0,72288.5,-10.33,-18.69,-18.11,0,*65
1514638988.12,813,6.0,72290.5,-10.33,-18.55,-17.97,0,*6A
1514638989.4,814,6.0,72288.8,-10.33,-18.59,-17.97,0,*61
1514638990.65,815,6.0,72290.3,-10.31,-18.55,-17.93,0,*6A
1514638991.93,816,6.0,72288.8,-10.33,-18.59,-17.97,0,*63
1514638993.21,817,6.0,72288.0,-10.33,-18.55,-17.97,0,*6E
1514638994.49,818,6.0,72290.3,-10.33,-18.59,-17.97,0,*6D
1514638995.74,819,6.0,72288.0,-10.31,-18.55,-17.97,0,*62
1514638996.97,820,6.0,72286.0,-10.33,-18.73,-18.17,0,*69
1514638998.19,821,6.0,72288.5,-10.33,-18.79,-18.17,0,*62
1514638999.43,822,6.0,72286.8,-10.33,-18.73,-18.11,0,*6D
1514639000.69,823,6.0,72290.5,-10.33,-18.69,-17.97,0,*66
1514639001.95,824,6.0,72286.0,-10.33,-18.69,-18.01,0,*61
1514639003.17,825,6.0,72286.3,-10.33,-18.73,-18.17,0,*6C
1514639004.4,826,6.0,72284.8,-10.33,-18.73,-18.11,0,*69
1514639005.64,827,6.0,72282.3,-10.33,-18.69,-18.11,0,*63
1514639006.9,828,6.0,72284.5,-10.33,-18.69,-17.97,0,*6D
1514639008.12,829,6.0,72284.0,-10.33,-18.73,-18.17,0,*60
1514639009.35,830,6.0,72284.3,-10.33,-18.79,-18.17,0,*62
1514639010.59,831,6.0,72286.3,-10.33,-18.89,-18.25,0,*6D
1514639011.81,832,6.0,72284.8,-10.35,-18.79,-18.11,0,*60
1514639013.04,833,6.0,72280.8,-10.35,-18.69,-18.01,0,*61
1514639014.3,834,6.0,72290.5,-10.33,-18.69,-17.97,0,*60
1514639015.56,835,6.0,72286.8,-10.33,-18.55,-17.87,0,*6F
1514639016.81,836,6.0,72286.5,-10.33,-18.59,-17.83,0,*64
1514639018.05,837,6.0,72284.8,-10.35,-18.69,-17.97,0,*65
1514639019.27,838,6.0,72286.5,-10.35,-18.89,-18.17,0,*63
1514639020.5,839,6.0,72284.8,-10.37,-19.07,-18.45,0,*60
1514639021.73,840,6.0,72286.0,-10.33,-19.07,-18.45,0,*6A
1514639022.94,841,6.0,72286.0,-10.35,-19.07,-18.45,0,*6D
1514639024.14,842,6.0,72284.3,-10.35,-19.07,-18.45,0,*6E
1514639025.37,843,6.0,72286.8,-10.35,-19.07,-18.55,0,*6E
1514639026.63,844,6.0,72286.3,-10.37,-18.99,-18.31,0,*6F
1514639027.83,845,6.0,72290.0,-10.35,-18.79,-18.17,0,*66
1514639029.06,846,6.0,72290.5,-10.35,-18.73,-18.01,0,*68
1514639030.3,847,6.0,72288.0,-10.35,-18.73,-17.97,0,*69
1514639031.57,848,6.0,72290.8,-10.37,-18.59,-17.93,0,*68
1514639032.8,849,6.0,72288.8,-10.35,-18.55,-17.73,0,*69
1514639034.03,850,6.0,72290.0,-10.37,-18.45,-17.69,0,*69
1514639035.26,851,6.0,72288.5,-10.35,-18.59,-17.87,0,*67
1514639036.5,852,6.0,72290.3,-10.35,-18.69,-18.01,0,*66
1514639037.71,853,6.0,72290.3,-10.35,-18.69,-18.11,0,*66
1514639038.94,854,6.0,72290.5,-10.35,-18.73,-17.97,0,*6B
1514639040.18,855,6.0,72288.0,-10.37,-18.79,-18.07,0,*64
1514639041.44,856,6.0,72290.8,-10.37,-18.83,-18.31,0,*67
1514639042.7,857,6.0,72288.5,-10.37,-19.07,-18.31,0,*6B
1514639043.96,858,6.0,72292.0,-10.37,-19.07,-18.35,0,*60
1514639045.22,859,6.0,72290.3,-10.37,-19.07,-18.35,0,*61
1514639046.48,860,6.0,72294.0,-10.37,-18.93,-18.21,0,*62
1514639047.74,861,6.0,72290.3,-10.37,-18.79,-18.01,0,*65
1514639048.99,862,6.0,72290.8,-10.37,-18.49,-17.93,0,*61
1514639050.25,863,6.0,72292.0,-10.37,-18.45,-17.79,0,*68
1514639051.5,864,6.0,72294.8,-10.37,-18.45,-17.79,0,*6F
1514639052.71,865,6.0,72292.0,-10.35,-18.45,-17.83,0,*69
1514639053.95,866,6.0,72292.5,-10.35,-18.69,-17.97,0,*61
1514639055.18,867,6.0,72288.5,-10.37,-18.65,-18.07,0,*68
1514639056.42,868,6.0,72294.0,-10.35,-18.73,-18.01,0,*64
1514639057.65,869,6.0,72288.8,-10.35,-18.55,-17.87,0,*60
1514639058.88,870,6.0,72290.3,-10.37,-18.65,-18.07,0,*6E
1514639060.11,871,6.06,72292.8,-10.37,-18.79,-18.17,0,*63
1514639061.34,872,6.0,72288.0,-10.35,-18.93,-18.25,0,*67
1514639062.55,873,6.0,72288.0,-10.35,-18.89,-18.25,0,*6D
1514639063.77,874,6.0,72290.0,-10.35,-18.89,-18.25,0,*6A
1514639065.01,875,6.0,72286.5,-10.35,-19.03,-18.31,0,*6D
1514639066.24,876,6.0,72288.0,-10.35,-19.03,-18.31,0,*6E
1514639067.5,877,6.0,72290.3,-10.35,-18.93,-18.31,0,*67
1514639068.76,878,6.0,72288.8,-10.37,-18.99,-18.35,0,*64
1514639070.03,879,6.0,72286.3,-10.37,-19.07,-18.31,0,*67
1514639071.26,880,6.0,72284.0,-10.35,-19.03,-18.31,0,*67
1514639072.52,881,6.0,72286.8,-10.37,-19.07,-18.31,0,*60
1514639073.78,882,6.0,72288.0,-10.37,-18.99,-18.31,0,*65
1514639075.02,883,6.0,72290.5,-10.37,-18.83,-18.21,0,*6E
1514639076.24,884,6.0,72288.5,-10.35,-18.89,-18.17,0,*64
1514639077.5,885,6.0,72288.5,-10.41,-18.99,-18.35,0,*67
1514639078.76,886,6.0,72286.0,-10.41,-18.99,-18.35,0,*64
1514639080.0,887,6.0,72290.3,-10.41,-19.13,-18.41,0,*65
1514639081.21,888,6.0,72286.0,-10.35,-19.07,-18.45,0,*68
1514639082.44,889,6.0,72288.5,-10.37,-19.37,-18.65,0,*6A
1514639083.71,890,6.06,72290.0,-10.41,-19.31,-18.65,0,*65
1514639084.97,891,6.0,72284.3,-10.41,-19.31,-18.65,0,*64
1514639086.24,892,6.0,72286.3,-10.41,-19.27,-18.49,0,*6E
1514639087.53,893,6.0,72286.5,-10.41,-19.27,-18.55,0,*62
1514639088.74,894,6.06,72288.3,-10.43,-19.47,-18.79,0,*6F
1514639089.96,895,6.0,72286.3,-10.43,-19.47,-18.89,0,*61
1514639091.22,896,6.0,72286.0,-10.41,-19.41,-18.79,0,*69
1514639092.44,897,6.0,72280.5,-10.43,-19.41,-18.83,0,*6F
1514639093.67,898,6.0,72276.3,-10.43,-19.41,-18.79,0,*65
1514639094.87,899,6.0,72274.8,-10.43,-19.47,-18.83,0,*67
1514639096.14,900,6.0,72274.3,-10.41,-19.27,-18.65,0,*6A
1514639097.38,901,6.0,72270.8,-10.43,-19.13,-18.35,0,*6B
1514639098.59,902,6.0,72268.3,-10.43,-18.99,-18.41,0,*68
1514639099.83,903,6.06,72274.8,-10.43,-18.99,-18.35,0,*6A
1514639101.04,904,6.0,72270.5,-10.43,-19.13,-18.41,0,*6D
1514639102.3,905,6.0,72274.8,-10.41,-19.03,-18.35,0,*6C
1514639103.54,906,6.0,72270.5,-10.41,-19.13,-18.41,0,*6D
1514639104.77,907,6.0,72270.0,-10.43,-19.03,-18.35,0,*6C
1514639106.03,908,6.0,72272.8,-10.41,-18.89,-18.21,0,*67
1514639107.25,909,6.0,72274.0,-10.43,-18.89,-18.21,0,*64
1514639108.48,910,6.0,72276.5,-10.43,-18.89,-18.21,0,*6C
1514639109.7,911,6.0,72272.0,-10.43,-18.83,-18.11,0,*64
1514639110.93,912,6.06,72278.8,-10.41,-18.79,-18.07,0,*67
1514639112.17,913,6.0,72276.8,-10.37,-18.73,-18.07,0,*6D
1514639113.38,914,6.06,72278.5,-10.43,-18.79,-18.07,0,*63
1514639114.64,915,6.0,72276.3,-10.41,-18.65,-17.97,0,*6B
1514639115.91,916,6.0,72278.8,-10.41,-18.79,-17.97,0,*65
1514639117.15,917,6.0,72282.0,-10.41,-18.83,-18.11,0,*60
1514639118.36,918,6.0,72278.5,-10.43,-18.79,-18.11,0,*68
1514639119.6,919,6.06,72282.8,-10.41,-18.83,-18.11,0,*6E
1514639120.84,920,6.0,72282.3,-10.41,-18.83,-18.21,0,*67
1514639122.08,921,6.0,72282.0,-10.41,-18.69,-18.07,0,*66
1514639123.34,922,6.0,72282.0,-10.41,-18.69,-17.93,0,*67
1514639124.6,923,6.06,72284.3,-10.41,-18.65,-17.93,0,*6A
1514639125.86,924,6.0,72284.3,-10.41,-18.65,-17.97,0,*69
1514639127.12,925,6.06,72286.5,-10.41,-18.65,-17.97,0,*68
1514639128.36,926,6.06,72290.0,-10.37,-18.83,-18.07,0,*64
1514639129.62,927,6.0,72290.5,-10.37,-18.99,-18.35,0,*6F
1514639130.88,928,6.06,72288.5,-10.37,-18.93,-18.17,0,*6A
1514639132.13,929,6.06,72284.8,-10.37,-18.93,-18.21,0,*6E
1514639133.37,930,6.0,72290.3,-10.37,-19.13,-18.45,0,*6D
1514639134.64,931,6.0,72286.8,-10.37,-19.07,-18.31,0,*6A
1514639135.87,932,6.0,72288.3,-10.37,-18.83,-18.21,0,*65
1514639137.13,933,6.0,72288.8,-10.41,-18.89,-18.11,0,*6C
1514639138.37,934,6.0,72288.8,-10.41,-18.83,-18.07,0,*66
1514639139.6,935,6.0,72286.0,-10.41,-18.99,-18.25,0,*6C
1514639140.83,936,6.06,72290.5,-10.41,-19.03,-18.21,0,*69
1514639142.06,937,6.0,72290.3,-10.41,-19.13,-18.25,0,*6D
1514639143.33,938,6.0,72290.8,-10.37,-19.07,-18.31,0,*63
1514639144.59,939,6.0,72288.3,-10.37,-18.99,-18.31,0,*64
1514639145.79,940,6.0,72284.8,-10.35,-18.99,-18.21,0,*69
1514639147.01,941,6.0,72290.8,-10.43,-19.03,-18.11,0,*68
1514639148.21,942,6.06,72294.8,-10.43,-18.99,-18.21,0,*6A
1514639149.45,943,6.0,72288.0,-10.41,-19.13,-18.25,0,*6E
1514639150.72,944,6.0,72290.0,-10.37,-19.27,-18.45,0,*69
1514639151.97,945,6.0,72288.8,-10.37,-19.41,-18.65,0,*6A
1514639153.22,946,6.0,72288.5,-10.37,-19.37,-18.59,0,*67
1514639154.48,947,6.0,72292.3,-10.41,-19.41,-18.69,0,*65
1514639155.77,948,6.0,72292.3,-10.41,-19.31,-18.55,0,*62
1514639157.04,949,6.06,72292.5,-10.41,-19.17,-18.35,0,*61
1514639158.26,950,6.06,72294.5,-10.41,-19.03,-18.25,0,*6D
1514639159.52,951,6.06,72292.0,-10.37,-18.83,-17.93,0,*66
1514639160.76,952,6.06,72294.3,-10.41,-18.83,-18.07,0,*66
1514639162.0,953,6.0,72290.8,-10.41,-18.83,-18.11,0,*60
1514639163.24,954,6.0,72292.0,-10.41,-18.99,-18.11,0,*6C
1514639164.48,955,6.0,72292.3,-10.41,-18.99,-18.11,0,*6D
1514639165.72,956,6.0,72288.0,-10.41,-18.99,-18.21,0,*6D
1514639166.95,957,6.0,72292.3,-10.41,-19.03,-18.21,0,*6E
1514639168.2,958,6.0,72288.8,-10.37,-18.93,-18.17,0,*6D
1514639169.46,959,6.06,72292.5,-10.37,-18.79,-18.01,0,*6F
1514639170.72,960,6.06,72294.0,-10.37,-18.73,-17.93,0,*6B
1514639171.97,961,6.0,72290.0,-10.37,-18.73,-17.93,0,*6A
1514639173.2,962,6.06,72292.3,-10.37,-18.83,-18.17,0,*65
1514639174.45,963,6.0,72290.8,-10.37,-18.93,-18.21,0,*60
1514639175.71,964,6.06,72290.5,-10.37,-18.93,-18.21,0,*67
1514639176.98,965,6.0,72288.3,-10.37,-19.07,-18.31,0,*6B
1514639178.24,966,6.06,72292.5,-10.37,-19.07,-18.31,0,*68
1514639179.5,967,6.06,72290.5,-10.37,-19.07,-18.31,0,*69
1514639180.76,968,6.06,72290.5,-10.37,-19.07,-18.31,0,*66
1514639182.03,969,6.0,72288.8,-10.37,-19.13,-18.35,0,*66
1514639183.27,970,6.06,72292.0,-10.41,-19.17,-18.49,0,*60
1514639184.54,971,6.0,72286.3,-10.41,-19.17,-18.35,0,*6A
1514639185.81,972,6.0,72288.0,-10.37,-19.13,-18.31,0,*68
1514639187.07,973,6.06,72290.0,-10.37,-19.13,-18.35,0,*6D
1514639188.36,974,6.06,72290.0,-10.37,-19.27,-18.35,0,*6D
1514639189.6,975,6.0,72286.0,-10.37,-19.13,-18.45,0,*6C
1514639190.87,976,6.06,72290.5,-10.37,-19.13,-18.31,0,*6C
1514639192.11,977,6.06,72290.3,-10.37,-18.99,-18.21,0,*6F
1514639193.34,978,6.0,72290.5,-10.37,-19.07,-18.21,0,*66
1514639194.57,979,6.0,72290.3,-10.37,-18.99,-18.21,0,*61
1514639195.8,980,6.06,72290.5,-10.41,-19.03,-18.25,0,*60
1514639197.02,981,6.06,72290.3,-10.41,-19.03,-18.25,0,*61
1514639198.29,982,6.06,72288.5,-10.41,-19.13,-18.35,0,*62
1514639199.56,983,6.06,72288.8,-10.41,-19.13,-18.35,0,*63
1514639200.83,984,6.06,72288.8,-10.41,-19.13,-18.35,0,*64
1514639202.1,985,6.06,72288.5,-10.41,-19.13,-18.35,0,*65
1514639203.34,986,6.06,72296.3,-10.41,-18.99,-18.21,0,*60
1514639204.6,987,6.06,72294.5,-10.41,-18.89,-18.07,0,*64
1514639205.85,988,6.06,72292.8,-10.41,-18.79,-17.93,0,*66
1514639207.09,989,6.06,72288.3,-10.37,-18.73,-17.87,0,*69
1514639208.35,990,6.0,72290.0,-10.37,-18.79,-17.93,0,*6E
1514639209.6,991,6.0,72290.0,-10.37,-18.73,-17.93,0,*65
1514639210.85,992,6.06,72292.3,-10.37,-18.73,-17.93,0,*66
1514639212.11,993,6.06,72292.8,-10.37,-18.79,-18.01,0,*69
1514639213.37,994,6.06,72294.8,-10.37,-18.93,-18.17,0,*6D
1514639214.59,995,6.06,72292.8,-10.35,-18.89,-18.17,0,*65
1514639215.82,996,6.06,72290.3,-10.35,-18.93,-18.17,0,*6D
1514639217.05,997,6.06,72290.3,-10.35,-18.93,-18.17,0,*6C
1514639218.28,998,6.06,72292.0,-10.37,-19.07,-18.21,0,*68
1514639219.48,999,6.06,72290.3,-10.35,-19.03,-18.17,0,*6A
1514639220.71,1000,6.06,72288.5,-10.35,-19.03,-18.31,0,*56
1514639221.99,1001,6.0,72288.5,-10.37,-19.27,-18.49,0,*5C
1514639223.25,1002,6.0,72288.5,-10.37,-19.23,-18.45,0,*57
1514639224.49,1003,6.06,72290.3,-10.37,-19.37,-18.49,0,*5F
1514639225.74,1004,6.06,72290.0,-10.37,-19.51,-18.73,0,*51
1514639226.99,1005,6.06,72290.8,-10.37,-19.65,-18.83,0,*58
1514639228.28,1006,6.06,72292.0,-10.37,-19.65,-18.93,0,*5A
1514639229.51,1007,6.0,72284.0,-10.35,-19.65,-18.79,0,*5D
1514639230.78,1008,6.06,72290.5,-10.41,-19.61,-18.99,0,*5B
1514639232.04,1009,6.06,72290.8,-10.41,-19.75,-18.89,0,*5E
1514639233.27,1010,6.06,72288.5,-10.43,-19.61,-18.83,0,*5B
1514639234.51,1011,6.06,72288.3,-10.41,-19.47,-18.69,0,*58
1514639235.73,1012,6.06,72288.5,-10.43,-19.47,-18.69,0,*59
1514639236.99,1013,6.06,72288.5,-10.41,-19.41,-18.65,0,*50
1514639238.23,1014,6.06,72290.0,-10.43,-19.41,-18.65,0,*55
1514639239.47,1015,6.06,72290.5,-10.43,-19.31,-18.49,0,*5D
1514639240.74,1016,6.06,72288.8,-10.41,-19.17,-18.55,0,*55
1514639241.98,1017,6.06,72288.5,-10.41,-19.17,-18.49,0,*59
1514639243.22,1018,6.06,72290.0,-10.41,-19.17,-18.41,0,*5E
1514639244.49,1019,6.06,72286.3,-10.43,-19.41,-18.55,0,*5B
1514639245.78,1020,6.06,72288.0,-10.41,-19.61,-18.89,0,*50
1514639247.02,1021,6.0,72284.8,-10.41,-19.81,-19.03,0,*5C
1514639248.23,1022,6.06,72290.8,-10.43,-19.75,-19.03,0,*56
1514639249.47,1023,6.06,72288.0,-10.43,-19.95,-19.27,0,*5F
1514639250.71,1024,6.0,72288.5,-10.41,-20.05,-19.13,0,*5E
1514639251.91,1025,6.06,72292.5,-10.43,-19.75,-18.99,0,*53
1514639253.14,1026,6.06,72294.5,-10.43,-19.81,-18.99,0,*5B
1514639254.37,1027,6.06,72290.5,-10.43,-19.75,-18.89,0,*50
1514639255.57,1028,6.06,72288.0,-10.43,-19.75,-18.83,0,*55
1514639256.81,1029,6.06,72290.5,-10.43,-19.61,-18.79,0,*54
1514639258.01,1030,6.06,72290.3,-10.45,-19.47,-18.79,0,*5E
1514639259.25,1031,6.06,72288.5,-10.45,-19.57,-18.83,0,*5B
1514639260.48,1032,6.06,72294.5,-10.45,-19.57,-18.79,0,*5D
1514639261.71,1033,6.06,72292.5,-10.45,-19.57,-18.79,0,*5C
1514639262.99,1034,6.06,72294.3,-10.47,-19.61,-18.89,0,*53
1514639264.25,1035,6.06,72292.3,-10.45,-19.61,-18.89,0,*50
1514639265.48,1036,6.06,72294.8,-10.45,-19.61,-18.79,0,*5C
1514639266.71,1037,6.06,72292.0,-10.45,-19.61,-18.79,0,*5D
1514639267.95,1038,6.06,72294.3,-10.45,-19.61,-18.83,0,*57
1514639269.18,1039,6.0,72288.0,-10.45,-19.61,-18.83,0,*56
1514639270.43,1040,6.06,72292.3,-10.47,-19.95,-19.23,0,*5A
1514639271.67,1041,6.06,72294.3,-10.47,-20.09,-19.23,0,*54
1514639272.87,1042,6.06,72294.0,-10.45,-19.91,-19.03,0,*5C
1514639274.11,1043,6.06,72294.0,-10.45,-19.71,-18.89,0,*50
1514639275.34,1044,6.06,72294.5,-10.45,-19.61,-18.79,0,*59
1514639276.59,1045,6.06,72292.5,-10.47,-19.65,-18.83,0,*5B
1514639277.82,1046,6.06,72290.5,-10.47,-19.51,-18.69,0,*5B
1514639279.03,1047,6.06,72288.3,-10.45,-19.47,-18.69,0,*5F
1514639280.26,1048,6.06,72294.0,-10.47,-19.47,-18.69,0,*52
1514639281.49,1049,6.06,72292.0,-10.47,-19.37,-18.69,0,*54
1514639282.73,1050,6.06,72294.8,-10.47,-19.37,-18.69,0,*5C
1514639283.96,1051,6.06,72290.8,-10.45,-19.37,-18.55,0,*50
1514639285.21,1052,6.06,72292.0,-10.47,-19.37,-18.59,0,*5D
1514639286.45,1053,6.06,72292.3,-10.45,-19.31,-18.49,0,*59
1514639287.66,1054,6.06,72292.3,-10.45,-19.17,-18.41,0,*52
1514639288.91,1055,6.06,72288.3,-10.47,-19.23,-18.41,0,*56
1514639290.14,1056,6.06,72292.8,-10.47,-19.07,-18.25,0,*51
1514639291.36,1057,6.06,72292.0,-10.47,-19.17,-18.25,0,*51
1514639292.63,1058,6.06,72292.3,-10.47,-19.17,-18.31,0,*5B
1514639293.87,1059,6.06,72294.3,-10.45,-19.13,-18.35,0,*58
1514639295.1,1060,6.06,72294.3,-10.47,-19.07,-18.45,0,*52
1514639296.35,1061,6.06,72290.8,-10.47,-19.23,-18.41,0,*51
1514639297.56,1062,6.06,72294.8,-10.45,-19.17,-18.41,0,*57
1514639298.81,1063,6.06,72292.0,-10.45,-19.27,-18.49,0,*5D
1514639300.04,1064,6.06,72290.5,-10.45,-19.37,-18.55,0,*56
1514639301.28,1065,6.06,72292.5,-10.45,-19.27,-18.49,0,*5B
1514639302.54,1066,6.06,72286.5,-10.47,-19.23,-18.45,0,*52
1514639303.79,1067,6.06,72288.0,-10.47,-19.37,-18.59,0,*5B
1514639305.05,1068,6.06,72288.8,-10.45,-19.41,-18.55,0,*5B
1514639306.28,1069,6.06,72290.8,-10.45,-19.47,-18.55,0,*5C
1514639307.49,1070,6.06,72292.3,-10.45,-19.47,-18.65,0,*57
1514639308.69,1071,6.06,72290.5,-10.45,-19.71,-18.79,0,*5E
1514639309.94,1072,6.06,72290.5,-10.47,-19.61,-18.83,0,*5B
1514639311.18,1073,6.06,72290.5,-10.45,-19.61,-18.83,0,*58
1514639312.38,1074,6.06,72294.3,-10.45,-19.71,-18.83,0,*5E
1514639313.63,1075,6.06,72294.0,-10.47,-19.75,-18.89,0,*53
1514639314.86,1076,6.06,72290.0,-10.45,-19.61,-18.83,0,*5D
1514639316.07,1077,6.06,72292.8,-10.45,-19.71,-18.83,0,*5D
1514639317.31,1078,6.06,72292.0,-10.47,-19.85,-19.03,0,*52
1514639318.53,1079,6.06,72292.3,-10.45,-19.85,-19.07,0,*55